Location: Ecklingerode
(51.5036°N, 10.3122°E)
Time: 01:47:13
(UTC+00:00)

Cosmos 1709 Rocket - Pass Details

Date: 29 October 2020
Orbit: 949 x 1001 km, 82.9° (Epoch: 23 November)

Event Time Altitude Azimuth Distance (km) Brightness Sun altitude
Rises 18:35:19 0° 348° (NNW) 3,729 7.3 -25.1°
Reaches altitude 10° 18:37:51 10° 345° (NNW) 2,780 6.7 -25.5°
Maximum altitude 18:44:10 65° 266° (W) 1,096 4.4 -26.5°
Drops below altitude 10° 18:50:27 10° 186° (S) 2,765 6.3 -27.5°
Sets 18:52:59 0° 183° (S) 3,707 6.9 -27.8°
